Santiago, Chile

5:48 AM -03 on August 18, 2018 (GMT -0300)
Arturo Merino Benitez International

Weather History for SCEL - February, 2018

Change the Weather History Date:

Friday, February 9, 2018

  Actual Average Record
Temperature  
Mean Temperature 72 °F -  
Max Temperature 88 °F 81 °F 93 °F (2005)
Min Temperature 57 °F 50 °F 48 °F (2000)
Cooling Degree Days 8    
Growing Degree Days 22 (Base 50)    
Moisture  
Dew Point 45 °F    
Average Humidity 41    
Maximum Humidity 72    
Minimum Humidity 12    
Precipitation  
Precipitation 0.00 in - - ()
Sea Level Pressure  
Sea Level Pressure 29.94 in    
Wind  
Wind Speed 6 mph ()    
Max Wind Speed 18 mph    
Max Gust Speed -    
Visibility 5.4 miles    
Events      
Averages and records for this station are not official NWS values.
T = Trace of Precipitation, MM = Missing Value Source: Averaged Metar Reports

Daily Weather History Graph

Daily Weather History Graph

Search for Another Location

Airport or City:

Astronomy

Feb. 09, 2018 Rise Set
Actual Time 7:13 AM -03 8:40 PM -03
Civil Twilight 6:47 AM -03 9:06 PM -03
Nautical Twilight 6:15 AM -03 9:38 PM -03
Astronomical Twilight 5:42 AM -03 10:11 PM -03
Moon 2:07 AM -03 (2/9) 4:07 PM -03 (2/9)
Length of Visible Light 14h 19m
Length of Day
13h 27m
Waning Crescent, 32% of the Moon is Illuminated
Feb 9
Waning Crescent
Feb 15
New
Feb 23
First Quarter
Mar 1
Full
Mar 9
Last Quarter

Hourly Weather History & Observations

Time (-03) Temp. Dew Point Humidity Pressure Visibility Wind Dir Wind Speed Gust Speed Precip Events Conditions
12:00 AM 68.0 °F 50.0 °F 52% 29.95 in - SE 6.9 mph - N/A   Clear
1:00 AM 68.0 °F 50.0 °F 52% 29.95 in - SSE 5.8 mph - N/A   Clear
2:00 AM 66.2 °F 51.8 °F 60% 29.92 in - SSE 6.9 mph - N/A   Clear
3:00 AM 63 °F 51 °F 56% 29.90 in 6 mi Calm Calm - -   Partly Cloudy
3:00 AM 62.6 °F 51.8 °F 68% 29.92 in - Variable 1.2 mph - N/A   Clear
4:00 AM 62.6 °F 50.0 °F 63% 29.92 in - Variable 1.2 mph - N/A   Clear
5:00 AM 59.0 °F 48.2 °F 67% 29.92 in - Variable 1.2 mph - N/A   Clear
6:00 AM 59.0 °F 48.2 °F 67% 29.92 in - Variable 2.3 mph - N/A   Clear
7:00 AM 59.0 °F 50.0 °F 72% 29.92 in 4.3 mi Variable 2.3 mph - N/A   Unknown
8:00 AM 60.8 °F 50.0 °F 68% 29.95 in 4.3 mi ENE 3.5 mph - N/A   Unknown
9:00 AM 64 °F 50 °F 51% 29.95 in 5 mi Calm Calm - -   Haze
9:00 AM 64.4 °F 50.0 °F 59% 29.98 in 5.0 mi Variable 2.3 mph - N/A   Unknown
10:00 AM 68.0 °F 50.0 °F 52% 29.98 in - Variable 2.3 mph - N/A   Clear
11:00 AM 73.4 °F 50.0 °F 44% 29.98 in - Variable 2.3 mph - N/A   Clear
12:00 PM 77.0 °F 50.0 °F 39% 29.98 in - WSW 3.5 mph - N/A   Clear
1:00 PM 80.6 °F 48.2 °F 32% 29.95 in - SE 4.6 mph - N/A   Clear
2:00 PM 84.2 °F 48.2 °F 29% 29.95 in - South 13.8 mph - N/A   Clear
3:00 PM 85 °F 43 °F 14% 29.87 in 6 mi SW 16.1 mph - -   Partly Cloudy
3:00 PM 86.0 °F 42.8 °F 22% 29.95 in - SW 16.1 mph - N/A   Clear
4:00 PM 86.0 °F 33.8 °F 15% 29.95 in - SSW 15.0 mph - N/A   Clear
5:00 PM 86.0 °F 33.8 °F 15% 29.92 in 6.2 mi SW 16.1 mph - N/A   Partly Cloudy
6:00 PM 84.2 °F 35.6 °F 18% 29.92 in - SW 18.4 mph - N/A   Clear
7:00 PM 82.4 °F 33.8 °F 17% 29.92 in - SW 17.3 mph - N/A   Clear
8:00 PM 80.6 °F 35.6 °F 20% 29.92 in - SW 15.0 mph - N/A   Clear
9:00 PM 78 °F 36 °F 12% 29.89 in 6 mi SSW 12.7 mph - -   Partly Cloudy
9:00 PM 77.0 °F 35.6 °F 22% 29.95 in - SSW 12.7 mph - N/A   Clear
10:00 PM 75.2 °F 37.4 °F 25% 29.98 in - South 12.7 mph - N/A   Clear
11:00 PM 71.6 °F 41.0 °F 33% 29.98 in - South 12.7 mph - N/A   Clear